Location: Cabo di Oristano
(39.8500°N, 8.4333°E)
Time: 17:38:36
(UTC+00:00)

NOSS 3-1 (A) - Pass Details

Date: 31 January 2023
Orbit: 689 x 1522 km, 63.4° (Epoch: 29 March)

Event Time Altitude Azimuth Distance (km) Brightness Sun altitude
Exits shadow 04:33:41 61° 265° (W) 879 2.9 -23.6°
Maximum altitude 04:34:20 68° 307° (NW) 849 2.9 -23.5°
Drops below altitude 10° 04:40:10 10° 30° (NNE) 2,587 6.0 -22.3°
Sets 04:42:57 0° 33° (NNE) 3,660 6.9 -21.8°
